Location: Nassau
(25.0830°N, 77.3500°W)
Time: 03:39:27
(UTC-04:00)

ISS - All Passes

Search period start: 18 September 2014 00:00
Search period end: 28 September 2014 00:00
Orbit: 414 x 417 km, 51.6° (Epoch: 18 September)

Date Brightness Start Highest point End Pass type
(mag) Time Alt. Az. Time Alt. Az. Time Alt. Az.
18 Sep - 01:37:36 10° SSE 01:39:16 13° SE 01:40:55 10° E night (unlit)
18 Sep - 03:12:46 10° WSW 03:15:43 29° NW 03:18:41 10° NNE night (unlit)
18 Sep - 11:24:14 10° NW 11:27:31 63° NE 11:30:48 10° SE daylight
19 Sep - 02:23:38 10° SW 02:26:56 64° NW 02:30:14 10° NE night (unlit)
19 Sep - 10:35:46 10° NNW 10:38:43 29° NE 10:41:38 10° ESE daylight
19 Sep - 12:13:28 10° W 12:15:10 13° SW 12:16:52 10° SSW daylight
20 Sep - 01:34:55 10° SSW 01:38:10 53° SE 01:41:25 10° NE night (unlit)
20 Sep - 09:47:43 10° N 09:49:47 15° NE 09:51:52 10° E daylight
20 Sep - 11:23:36 10° WNW 11:26:29 28° SW 11:29:22 10° S daylight
21 Sep - 00:46:42 10° S 00:49:25 24° SE 00:52:09 10° ENE night (unlit)
21 Sep - 02:23:44 10° W 02:26:04 18° NW 02:28:24 10° N night (unlit)
21 Sep - 10:34:26 10° NW 10:37:44 65° SW 10:41:00 10° SSE daylight
21 Sep - 23:59:34 10° SE 00:00:42 11° SE 00:01:49 10° ESE night (unlit)
22 Sep - 01:34:03 10° WSW 01:37:06 34° NW 01:40:10 10° NNE night (unlit)
22 Sep - 09:45:37 10° NNW 09:48:52 53° NE 09:52:06 10° SE daylight
23 Sep - 00:44:52 10° SW 00:48:11 77° NW 00:51:30 10° NE night (unlit)
23 Sep - 08:57:05 10° NNW 08:59:54 25° NE 09:02:42 10° ESE daylight
23 Sep - 10:34:20 10° W 10:36:24 16° SW 10:38:28 10° SSW daylight
23 Sep - 23:56:07 10° SSW 23:59:17 44° SE 00:02:28 10° NE night (unlit)
24 Sep - 01:35:07 10° WNW 01:36:08 11° NW 01:37:09 10° NNW night (unlit)
24 Sep - 08:09:03 10° N 08:10:49 14° NE 08:12:35 10° ENE daylight
24 Sep - 09:44:33 10° WNW 09:47:34 33° SW 09:50:34 10° SSE daylight
24 Sep - 23:07:54 10° S 23:10:25 20° SE 23:12:57 10° ENE night (unlit)
25 Sep - 00:44:28 10° W 00:47:00 20° NW 00:49:32 10° N night (unlit)
25 Sep - 08:55:20 10° NW 08:58:39 79° SW 09:01:57 10° SE daylight
25 Sep - 23:54:46 10° WSW 23:57:55 39° NW 00:01:04 10° NNE night (unlit)
26 Sep - 08:06:27 10° NNW 08:09:38 44° NE 08:12:49 10° ESE daylight
26 Sep - 23:05:33 10° SW 23:08:52 88° SE 23:12:11 10° NE night (unlit)
27 Sep - 07:17:52 10° N 07:20:31 22° NE 07:23:09 10° E daylight
27 Sep - 08:54:41 10° W 08:57:03 18° SW 08:59:26 10° S daylight
27 Sep - 22:16:46 10° SSW 22:19:51 36° SE 22:22:56 10° ENE night (unlit)
27 Sep - 23:55:04 10° WNW 23:56:37 13° NW 23:58:11 10° NNW night (unlit)
